STARLINK-11481 [DTC] (62230 NORAD) Tracking and Keplerian Element Data

This shows tracking and keplerian element data for the satellite.

Feedback or suggestion? Click here.




ElementValue
Catalog62230
NameSTARLINK-11481 [DTC]
Epoch Orbit1076
Epoch Day34.84538082
Epoch Year2025
RAAN267.7772
Inclination53.157
Eccentricity0.0001243
Argument of Perigee112.6899
Mean Anonmoly247.4251
Mean Motion15.69712391
Decay Rate2.56E-06
L11 62230U 24231N 25034.84538082 .00000256 00000+0 69708-5 0 9994
L22 62230 53.1570 267.7772 0001243 112.6899 247.4251 15.69712391 10763



Live tracking and technical data element details for STARLINK-11481 [DTC] (NORAD 62230). STARLINK-11481 [DTC] can be tracked NOW for your location showing map with azimuth and elevation plus other details from your city location.







IsCatalogInMostPopularTable: catalog: 62230, numindb: 12
Update: records affected: 1



GetName: 62230 STARLINK-11481 [DTC]

Hit Count: updated at: Sat, 24 May 2025 15:00:51 GMT